Wind_Speed
48 47 45 44 43 41 39 38 37 37 36 35 34 33 33 33 33 33 32 32 32 32 33 34 34 35 35 35 36 36 36 37 37 37 37 37 38 38 38 38 39 39 39
51 50 48 46 44 42 41 39 38 38 37 36 35 35 35 35 34 34 34 34 34 35 35 36 36 36 36 36 37 37 37 38 37 37 37 37 38 38 38 38 38 38 39
53 52 50 48 46 44 42 41 40 39 38 37 37 37 36 35 35 35 36 36 37 37 37 37 37 37 37 37 37 37 38 37 37 37 37 37 38 38 38 38 39 39 39
54 53 52 51 49 46 45 43 41 40 39 39 38 38 37 36 36 37 38 38 38 38 38 38 38 37 37 37 37 37 37 37 37 37 37 38 38 38 38 39 39 39 39
54 53 52 51 50 48 47 45 43 42 41 41 40 39 38 38 38 38 39 39 39 39 38 38 38 37 37 38 37 37 37 37 37 37 37 37 37 37 38 38 39 39 39
54 54 53 52 51 50 48 47 45 44 43 42 41 40 39 39 39 39 39 39 39 39 38 38 38 38 37 37 37 37 37 37 37 37 37 37 37 37 38 38 38 39 39
55 54 53 52 52 51 49 48 47 45 44 43 42 41 40 40 40 40 40 40 39 39 39 38 38 37 37 37 37 37 37 37 37 37 37 36 37 37 38 38 39 39 40
55 54 53 52 51 50 49 48 47 46 44 43 42 42 41 41 41 40 40 40 39 39 39 38 37 37 37 37 37 36 37 37 37 37 36 36 37 37 38 38 39 40 41
54 53 52 51 51 50 49 48 46 46 44 43 43 42 42 41 41 40 40 40 39 39 38 37 37 37 37 37 37 37 37 37 36 36 36 36 37 37 38 38 40 41 42
53 53 52 51 50 50 49 48 47 46 45 44 43 42 42 41 40 40 40 39 39 38 37 37 37 36 36 36 37 37 37 36 36 36 36 36 37 37 37 39 40 42 43
52 52 50 49 49 48 48 47 47 46 45 44 43 42 42 41 40 39 39 38 38 37 37 36 36 36 36 36 36 36 36 36 36 36 36 36 37 37 38 40 41 43 44
50 51 50 48 48 47 47 46 46 45 43 42 42 42 41 40 40 39 38 37 37 36 36 36 35 35 35 36 36 36 36 36 36 36 36 36 37 38 39 41 43 44 45
47 48 48 47 47 47 47 45 45 43 43 42 42 41 40 39 38 37 37 36 36 35 35 35 35 35 36 36 36 36 35 36 36 36 36 37 38 39 41 42 44 45 47
44 45 46 45 45 45 45 44 42 42 41 41 40 39 38 37 36 36 35 35 35 34 34 34 35 35 35 35 35 35 35 35 35 36 37 38 39 41 42 43 45 47 48
42 42 43 43 42 42 42 41 41 40 40 39 39 38 37 36 36 35 35 34 35 34 34 34 34 34 34 34 34 34 35 35 36 37 37 38 40 41 43 44 46 48 50
40 40 41 41 41 40 40 39 39 38 38 37 37 36 35 35 34 34 34 34 34 33 33 33 33 33 33 33 33 34 34 35 36 37 38 39 40 42 44 46 48 49 51
39 39 39 39 39 39 38 38 37 37 36 35 35 34 34 33 33 33 33 33 32 32 32 32 32 32 32 32 33 33 34 35 36 37 38 39 41 43 45 47 49 51 53
40 39 39 39 39 39 38 37 37 36 35 34 34 33 33 32 32 32 32 32 31 31 31 31 31 31 32 32 33 34 34 35 36 37 39 40 42 44 46 47 49 52 54
41 40 39 39 39 38 38 37 36 35 34 33 33 32 32 31 31 31 31 30 30 30 30 30 30 31 31 32 33 34 34 35 36 38 39 41 42 44 46 48 50 53 54
41 40 39 39 39 38 37 36 35 34 33 32 32 31 31 30 30 30 30 30 30 30 30 30 30 30 31 32 33 33 34 35 37 38 40 41 43 45 47 49 52 53 56
42 41 40 39 38 37 35 34 33 33 32 32 31 30 30 29 29 29 29 29 29 29 29 29 30 30 31 32 32 33 34 35 37 39 40 42 44 46 49 51 52 55 57
42 42 41 39 37 35 35 34 33 33 32 31 30 30 29 29 29 29 28 28 28 28 29 29 30 30 31 32 33 34 35 36 38 39 41 43 45 47 49 51 54 56 59
43 42 41 39 37 36 35 34 34 33 31 31 30 29 29 28 28 28 28 28 28 28 29 29 29 30 31 32 33 34 35 37 38 40 42 44 46 48 50 52 55 57 59
42 41 40 39 38 36 34 34 33 32 31 31 30 29 28 28 27 27 27 27 28 28 28 29 29 30 31 32 33 34 36 37 38 40 43 45 47 49 51 53 56 57 59
41 40 39 38 37 36 34 33 32 31 31 30 30 29 28 28 28 27 27 27 28 27 28 29 30 30 31 32 33 34 36 37 39 41 43 45 47 49 52 54 56 58 59
40 40 39 38 37 36 35 34 32 32 31 30 29 29 28 28 27 27 27 28 28 28 28 29 30 30 31 32 33 35 36 38 39 41 44 46 48 50 52 55 58 59 59
Wind_Direction
222 222 223 224 226 227 228 230 231 233 235 237 239 241 244 247 250 254 258 261 265 268 271 274 277 280 283 286 288 290 291 293 295 296 297 298 298 299 300 301 301 301 302
222 223 224 225 227 228 229 231 233 235 237 239 241 243 245 249 252 255 259 262 264 268 271 275 278 281 283 285 288 290 292 293 295 296 296 297 298 299 299 300 301 301 301
223 224 224 226 227 229 230 232 234 236 238 240 242 244 247 250 253 257 259 262 265 268 272 275 279 281 283 285 288 290 292 293 294 295 296 297 298 298 299 300 300 301 302
225 225 226 226 228 229 231 233 234 236 238 241 243 245 248 251 254 257 260 263 266 269 273 275 278 281 283 285 287 289 291 292 293 294 296 296 297 298 299 300 300 301 302
226 226 227 227 228 229 231 233 234 236 238 241 244 247 249 251 254 258 261 264 267 270 272 275 278 280 282 285 287 288 290 291 292 294 295 296 297 298 299 300 301 301 302
227 227 227 227 228 229 231 233 235 237 239 242 245 247 250 252 255 258 261 264 267 269 272 275 278 280 282 284 286 287 289 290 291 293 294 295 297 298 299 300 301 302 302
227 227 227 228 230 231 232 234 236 238 239 242 244 246 249 252 255 258 261 264 266 269 272 275 277 279 281 283 285 286 288 289 291 292 293 294 296 297 298 300 301 301 302
228 228 228 229 230 232 233 234 235 237 239 241 243 246 249 252 255 258 261 263 266 268 271 274 276 278 281 283 284 285 286 288 289 291 292 293 295 297 298 299 301 302 302
228 229 229 229 231 232 234 235 236 237 239 241 243 245 248 251 254 257 259 262 265 268 270 272 275 278 280 281 283 284 286 287 288 289 291 293 295 296 298 299 300 301 302
228 229 230 230 231 232 233 235 237 238 239 241 243 245 248 250 253 256 258 261 264 266 268 271 274 276 278 280 282 283 285 286 287 288 290 292 294 296 297 299 300 301 301
227 228 230 231 231 232 233 234 236 238 239 241 243 245 247 249 252 255 258 260 262 264 267 270 273 276 278 279 280 282 283 285 286 288 290 292 294 296 298 299 299 300 300
225 226 227 228 230 232 233 234 235 237 239 241 243 245 247 249 251 254 257 258 261 263 266 270 273 275 276 277 279 280 282 284 286 288 290 292 294 296 297 298 299 300 301
223 224 225 227 229 230 232 233 235 237 238 241 243 246 248 250 252 254 255 257 260 263 266 269 271 273 275 277 278 280 282 283 286 287 290 292 294 296 297 298 299 300 301
220 221 223 225 227 229 231 233 234 235 237 239 242 245 247 249 251 253 254 257 260 264 267 269 271 272 274 276 278 280 281 283 285 287 290 292 294 295 297 298 299 300 301
217 218 220 222 225 227 229 231 232 234 236 239 241 243 246 248 250 251 254 257 260 263 265 267 269 272 274 276 278 280 282 284 286 288 291 292 294 296 297 298 299 300 302
214 216 217 220 222 225 227 229 231 233 235 238 240 242 244 246 248 251 254 257 260 262 264 267 269 271 274 276 278 280 282 285 287 289 291 293 295 296 297 299 300 301 303
212 214 216 219 221 224 226 228 231 233 235 237 238 241 243 246 248 250 253 256 259 262 264 266 269 271 274 276 279 281 284 287 289 290 292 294 295 297 298 300 301 302 304
212 213 216 219 221 224 226 228 230 232 234 236 238 239 242 244 247 250 254 257 259 262 264 266 269 271 274 277 280 283 286 288 290 292 293 295 297 298 299 301 302 304 304
212 214 216 218 220 223 225 227 229 231 233 235 237 239 241 244 247 250 253 256 259 261 264 267 270 273 276 279 282 285 287 289 291 293 295 296 297 299 301 302 303 304 305
212 214 216 218 220 221 223 225 227 230 232 235 238 240 242 244 247 250 253 255 258 261 265 268 271 274 277 281 284 286 288 290 292 295 296 298 299 301 302 304 304 305 306
212 214 217 220 221 222 224 225 227 230 233 236 238 241 243 245 248 250 252 256 259 262 266 270 273 276 280 283 285 287 289 291 294 296 297 299 300 302 304 305 306 307 308
212 214 218 220 222 222 224 225 228 230 233 236 238 241 243 246 249 251 254 257 261 264 268 272 275 279 282 284 286 288 290 293 295 297 299 300 302 303 305 307 307 308 309
214 215 217 219 221 223 224 226 228 231 233 236 239 242 245 248 250 253 256 259 263 267 271 274 277 280 283 285 286 289 292 295 297 298 300 302 304 305 306 308 309 310 311
212 215 216 218 221 223 225 226 228 231 234 237 240 243 246 248 251 254 258 262 266 270 273 275 278 281 284 286 288 291 294 296 298 299 302 304 305 306 308 310 311 312 312
212 214 215 218 220 222 224 225 228 231 235 238 241 244 246 249 252 255 260 264 268 271 274 277 280 282 285 287 290 293 295 297 299 302 304 305 306 308 310 312 313 313 313
211 212 213 216 218 221 223 225 228 232 235 238 242 244 247 250 253 258 262 265 268 272 275 278 281 283 285 288 292 294 297 299 301 303 305 307 308 310 312 313 314 314 313
Height
5748 5753 5758 5762 5767 5771 5776 5780 5783 5786 5789 5792 5795 5798 5799 5801 5803 5804 5805 5806 5806 5806 5806 5805 5805 5803 5802 5800 5798 5796 5794 5792 5789 5786 5783 5780 5777 5774 5771 5767 5764 5760 5756
5737 5743 5749 5754 5759 5764 5768 5772 5776 5779 5783 5786 5788 5790 5792 5794 5796 5797 5798 5799 5799 5799 5799 5798 5797 5796 5795 5793 5791 5789 5787 5784 5782 5779 5776 5773 5770 5766 5763 5760 5756 5752 5749
5728 5734 5740 5745 5751 5756 5761 5765 5768 5772 5775 5778 5780 5782 5785 5787 5789 5790 5791 5791 5791 5791 5791 5791 5790 5789 5787 5785 5784 5782 5779 5777 5774 5771 5769 5766 5763 5759 5756 5752 5748 5745 5741
5718 5724 5730 5736 5742 5748 5752 5756 5760 5764 5767 5769 5772 5775 5778 5780 5781 5782 5782 5783 5783 5783 5783 5783 5782 5781 5779 5778 5776 5774 5772 5769 5767 5764 5761 5758 5755 5752 5748 5745 5741 5737 5733
5708 5715 5721 5727 5732 5737 5742 5747 5751 5755 5758 5761 5765 5767 5770 5772 5772 5773 5774 5775 5775 5775 5775 5775 5774 5773 5772 5770 5768 5766 5764 5762 5759 5756 5753 5750 5747 5744 5740 5737 5733 5729 5725
5697 5704 5710 5715 5721 5727 5732 5737 5742 5746 5750 5753 5756 5759 5761 5763 5764 5765 5766 5766 5767 5767 5767 5766 5766 5765 5764 5762 5760 5758 5756 5754 5751 5749 5746 5743 5740 5736 5732 5729 5725 5722 5718
5685 5692 5698 5705 5711 5717 5723 5728 5733 5737 5741 5744 5747 5750 5752 5754 5755 5757 5757 5758 5759 5759 5759 5758 5758 5757 5755 5754 5752 5750 5748 5746 5743 5741 5738 5735 5732 5728 5725 5721 5717 5713 5710
5674 5681 5688 5695 5701 5707 5713 5718 5723 5727 5731 5735 5738 5741 5743 5745 5747 5748 5749 5750 5750 5750 5750 5750 5749 5749 5747 5746 5744 5742 5740 5738 5735 5733 5730 5727 5724 5721 5717 5713 5709 5705 5701
5663 5670 5677 5684 5690 5697 5702 5708 5713 5717 5721 5725 5728 5731 5734 5736 5738 5739 5740 5741 5742 5742 5742 5741 5741 5740 5739 5737 5736 5734 5732 5729 5727 5724 5722 5719 5716 5712 5709 5705 5701 5697 5693
5652 5659 5666 5673 5679 5686 5692 5697 5702 5707 5711 5715 5719 5722 5724 5727 5728 5730 5731 5732 5733 5733 5733 5733 5732 5732 5730 5729 5727 5726 5723 5721 5719 5716 5713 5711 5708 5704 5700 5697 5692 5688 5684
5641 5649 5656 5663 5669 5675 5681 5687 5692 5697 5701 5706 5709 5712 5715 5717 5719 5721 5722 5723 5724 5724 5724 5724 5724 5723 5722 5721 5719 5717 5715 5713 5710 5708 5705 5702 5699 5696 5692 5688 5684 5679 5674
5630 5638 5645 5652 5658 5665 5671 5676 5682 5687 5692 5696 5699 5702 5705 5708 5710 5712 5713 5714 5715 5715 5716 5716 5715 5715 5714 5712 5711 5709 5707 5705 5702 5700 5697 5694 5691 5687 5683 5679 5675 5670 5665
5620 5628 5635 5642 5649 5655 5661 5667 5672 5678 5682 5686 5690 5693 5696 5699 5701 5703 5705 5705 5706 5707 5707 5707 5707 5706 5705 5704 5702 5700 5699 5696 5694 5691 5689 5686 5682 5679 5674 5670 5665 5660 5655
5611 5618 5626 5633 5639 5646 5652 5658 5663 5668 5673 5677 5680 5684 5688 5690 5693 5694 5696 5697 5698 5699 5699 5699 5699 5698 5696 5695 5694 5692 5690 5688 5686 5683 5680 5677 5674 5670 5665 5661 5656 5650 5645
5603 5610 5618 5624 5631 5637 5643 5649 5654 5659 5664 5668 5672 5676 5679 5682 5684 5686 5687 5689 5690 5690 5690 5690 5690 5689 5688 5687 5685 5684 5682 5680 5677 5675 5672 5668 5665 5660 5656 5651 5646 5640 5634
5596 5603 5609 5616 5622 5629 5635 5640 5646 5651 5655 5659 5664 5667 5670 5673 5675 5677 5679 5680 5681 5682 5682 5682 5681 5681 5680 5679 5677 5676 5674 5671 5669 5666 5663 5659 5656 5651 5646 5641 5635 5629 5623
5588 5595 5602 5608 5615 5621 5627 5632 5637 5642 5647 5651 5655 5659 5662 5665 5667 5669 5670 5672 5673 5673 5674 5674 5673 5673 5672 5671 5669 5667 5665 5663 5660 5657 5654 5650 5646 5641 5636 5630 5624 5618 5610
5581 5587 5594 5601 5607 5613 5619 5624 5629 5634 5639 5643 5647 5650 5653 5656 5658 5660 5662 5664 5664 5665 5665 5665 5665 5665 5664 5662 5661 5659 5657 5654 5651 5648 5644 5640 5636 5631 5626 5620 5613 5606 5599
5573 5580 5587 5593 5599 5605 5611 5617 5622 5627 5631 5635 5639 5642 5645 5648 5650 5652 5654 5655 5656 5657 5657 5657 5657 5656 5655 5654 5652 5650 5648 5645 5642 5639 5635 5630 5626 5621 5615 5609 5603 5595 5587
5566 5573 5580 5586 5592 5598 5604 5610 5615 5619 5624 5628 5631 5634 5638 5640 5643 5645 5646 5647 5648 5649 5649 5649 5649 5648 5647 5646 5644 5642 5639 5637 5633 5630 5625 5620 5615 5610 5604 5598 5591 5583 5575
5559 5566 5573 5579 5585 5592 5597 5603 5608 5612 5616 5620 5624 5627 5630 5633 5635 5637 5638 5640 5641 5641 5641 5641 5641 5640 5639 5637 5635 5633 5630 5627 5624 5620 5615 5610 5605 5599 5593 5586 5579 5571 5562
5552 5558 5566 5572 5579 5585 5591 5596 5601 5605 5609 5613 5617 5620 5623 5625 5627 5629 5631 5632 5633 5633 5633 5633 5632 5631 5630 5628 5626 5624 5621 5618 5614 5610 5605 5600 5594 5588 5582 5575 5567 5559 5550
5545 5552 5558 5566 5572 5578 5584 5589 5594 5598 5602 5606 5609 5613 5615 5618 5620 5622 5623 5624 5625 5625 5625 5625 5624 5623 5622 5620 5617 5615 5611 5608 5604 5600 5595 5590 5584 5577 5570 5563 5555 5546 5537
5538 5545 5552 5559 5565 5571 5577 5582 5587 5592 5596 5599 5603 5606 5608 5610 5613 5614 5616 5617 5617 5617 5617 5617 5616 5614 5613 5611 5608 5605 5602 5598 5594 5590 5585 5579 5573 5566 5559 5551 5543 5534 5524
5531 5538 5545 5552 5558 5564 5570 5576 5580 5585 5589 5592 5596 5598 5601 5603 5605 5607 5608 5609 5609 5610 5609 5609 5607 5606 5604 5602 5599 5596 5592 5588 5584 5579 5574 5568 5562 5555 5547 5539 5530 5521 5511
5525 5531 5538 5545 5552 5558 5563 5569 5574 5578 5582 5585 5589 5591 5594 5596 5598 5599 5600 5601 5601 5601 5601 5600 5599 5597 5595 5592 5590 5587 5583 5579 5574 5569 5564 5557 5551 5544 5536 5527 5518 5508 5498